Theta_e
356 356 356 356 356 358 357 355 352 348 344 343 343 338 339 337 336 337 336 333 335 334 332 334 335 336 333 331 330 330 330 329 330 328 326 326 328 330 330 330 329 328 327
355 357 356 356 355 356 358 355 353 348 343 344 342 339 338 337 336 337 335 331 332 332 333 335 335 334 334 334 332 331 329 328 329 329 328 328 327 326 327 329 329 327 327
354 354 354 355 356 355 356 355 351 347 342 340 338 337 339 337 336 337 336 335 334 333 334 334 334 334 334 332 332 330 328 328 328 328 328 328 326 326 326 327 326 325 326
352 355 355 355 355 355 355 354 347 343 338 334 337 334 337 337 337 336 336 336 333 333 334 335 334 335 332 332 331 332 331 331 329 328 328 327 326 325 325 326 324 323 323
354 355 357 357 357 355 354 351 346 340 331 331 332 327 327 335 334 336 335 333 333 334 334 334 334 335 334 331 329 329 330 328 327 326 326 325 325 326 326 324 323 323 323
356 357 357 359 359 355 354 350 344 338 331 333 327 331 332 328 328 332 332 332 333 335 335 335 335 334 334 329 326 324 324 327 327 326 326 326 327 326 324 324 324 323 324
357 358 358 359 358 355 354 349 345 341 335 326 330 333 332 331 330 331 331 330 333 334 336 337 336 333 333 332 331 329 326 326 326 326 327 326 326 324 325 324 322 321 320
358 358 358 358 357 354 351 348 346 342 335 333 335 333 334 333 333 332 332 330 333 335 337 337 334 333 334 332 332 329 328 328 327 327 326 325 324 322 320 319 319 320 319
356 357 357 357 356 354 349 345 344 342 336 334 334 336 336 335 336 335 334 332 333 336 337 334 333 333 333 329 326 327 327 326 324 323 321 319 318 317 317 318 319 320 320
354 356 357 357 355 353 350 347 343 340 338 336 337 337 338 337 333 334 334 333 335 334 332 334 331 329 329 324 322 324 324 324 325 323 321 321 318 319 319 319 319 320 321
353 355 357 357 355 351 349 347 343 339 338 339 339 339 336 334 332 334 331 331 334 332 333 331 330 327 323 320 317 322 324 323 320 320 320 318 315 317 318 317 317 317 316
356 356 357 354 352 350 346 342 340 340 341 340 339 339 338 331 332 327 329 329 330 331 331 330 329 327 319 317 316 318 318 316 318 320 319 315 316 316 315 314 315 315 314
355 355 351 350 348 345 341 340 339 339 339 339 339 336 331 333 333 330 328 326 327 329 331 329 326 320 315 315 314 314 315 317 319 318 315 314 314 313 313 312 311 310 315
351 348 346 344 342 341 339 339 340 339 338 340 337 334 333 332 332 331 326 327 327 326 325 322 319 318 318 318 317 315 317 318 316 313 313 313 312 311 310 308 308 312 318
348 347 346 344 344 342 336 339 339 338 336 337 335 330 328 329 332 332 331 329 328 327 325 324 323 323 323 322 321 319 317 315 313 312 312 311 309 308 307 307 307 315 317
346 346 344 343 343 340 336 332 331 331 331 330 331 331 331 331 331 328 327 326 324 322 320 322 322 321 321 320 320 318 315 312 311 310 309 309 307 306 306 306 308 314 315
343 342 338 338 338 337 334 332 331 324 327 328 329 330 327 324 324 323 321 319 316 316 319 320 320 320 319 318 316 313 312 311 309 308 308 306 305 305 305 306 308 311 315
341 338 338 337 336 335 334 334 332 330 329 325 321 322 321 321 319 317 316 316 315 315 318 319 318 318 316 314 312 311 310 309 307 306 305 305 305 304 305 305 307 310 313
338 335 334 332 332 331 331 331 331 329 331 326 315 313 312 314 314 314 314 318 319 317 316 314 313 312 311 311 310 309 307 306 302 303 304 304 304 304 304 304 305 307 311
332 331 331 332 332 333 333 332 331 331 331 328 323 321 315 313 316 317 317 317 316 315 313 312 311 310 310 310 308 306 304 303 304 303 303 303 303 303 303 304 304 305 309
331 331 332 332 331 330 329 329 328 328 328 327 326 324 321 321 320 320 318 316 315 314 312 311 310 309 308 306 303 302 302 303 302 302 302 302 302 303 303 303 303 304 305
331 330 329 328 328 328 328 328 328 327 326 325 324 320 319 319 320 319 317 315 314 312 311 310 308 306 304 302 301 300 301 302 302 301 301 301 301 302 302 303 303 303 304
329 328 329 329 329 328 327 327 327 326 325 324 323 322 318 319 319 318 317 315 313 311 310 308 306 304 302 298 297 299 300 301 300 300 300 301 301 301 302 302 302 303 303
328 328 328 327 326 325 325 325 325 324 324 323 322 321 320 318 319 317 316 314 312 311 309 307 305 303 300 297 297 298 298 298 298 299 299 300 301 301 302 302 302 302 303
327 326 325 325 325 324 324 323 323 322 322 321 320 320 319 319 318 316 316 314 312 311 309 307 305 302 299 297 296 296 295 293 294 295 297 300 300 301 301 301 301 302 302
323 322 321 320 320 320 320 320 320 320 319 319 318 318 318 318 318 317 315 313 312 311 309 307 304 302 299 297 296 295 293 292 292 293 294 299 300 301 299 300 300 301 301
Wind_Speed
30 31 29 28 28 27 27 27 23 20 20 20 18 16 16 14 13 14 13 11 11 11 12 12 13 12 12 11 11 11 12 12 15 21 19 19 16 17 20 18 20 22 23
34 32 31 29 30 30 30 26 25 24 22 15 16 15 12 13 15 16 15 12 13 13 13 13 13 13 11 12 13 11 12 14 18 18 22 22 19 20 20 19 21 23 24
33 32 32 32 32 32 31 27 28 22 21 27 24 18 15 13 16 15 15 15 14 14 14 14 15 13 14 14 14 14 15 14 16 18 18 19 21 22 21 20 19 23 23
32 32 32 33 33 30 27 28 28 32 26 27 21 11 12 13 17 16 18 17 16 15 16 17 16 16 15 14 14 14 15 15 17 20 19 21 16 22 22 20 22 23 26
30 31 30 25 25 26 27 28 29 31 34 33 27 19 13 21 21 19 19 18 18 16 17 17 17 16 16 17 15 16 15 17 19 21 23 23 20 17 22 23 25 25 27
25 26 24 23 23 27 28 29 28 33 37 37 32 20 28 37 32 25 23 19 18 16 17 17 17 17 16 18 19 21 18 16 19 21 22 22 21 20 21 22 24 26 22
23 23 23 23 23 25 28 28 27 32 35 42 38 28 35 32 32 27 25 22 19 19 18 16 16 19 13 15 16 17 16 15 17 17 19 20 21 20 22 21 25 27 29
23 22 21 22 22 24 28 31 29 30 32 29 22 25 29 31 28 27 26 23 22 23 22 18 18 18 15 18 14 15 16 16 17 15 16 17 19 19 21 23 25 27 27
22 21 22 24 25 25 28 30 29 29 30 28 26 23 24 23 25 25 28 24 22 24 19 17 17 14 13 15 10 14 15 15 15 15 15 19 22 23 21 18 22 21 19
20 19 19 19 20 22 25 26 28 30 28 25 23 23 23 25 20 30 27 17 21 22 19 16 17 12 15 13 11 12 14 14 12 15 17 18 21 21 20 20 21 21 25
17 16 17 18 18 18 19 20 23 25 25 23 22 22 25 20 21 18 19 20 22 17 18 15 11 10 12 11 12 10 12 11 13 15 18 20 21 19 18 17 19 23 26
13 14 15 14 13 15 21 22 24 24 23 21 22 21 18 19 21 22 21 22 21 19 17 13 7 12 12 12 10 13 15 12 14 15 18 20 19 19 19 21 23 24 26
13 13 12 15 14 16 21 21 21 21 19 18 20 21 21 19 18 22 20 18 18 16 12 10 11 9 10 12 14 15 11 11 13 14 17 17 17 20 22 23 22 25 25
12 14 14 15 14 15 14 16 17 17 19 18 20 18 15 15 13 9 13 16 17 13 11 8 7 7 10 9 6 8 8 9 12 15 15 16 18 19 21 21 22 24 24
13 14 15 15 14 14 11 10 12 13 11 13 10 14 11 13 12 14 14 13 11 10 10 8 10 12 11 10 8 8 8 9 11 12 14 17 17 18 20 20 21 21 22
14 13 13 14 13 12 10 8 6 7 12 10 9 10 9 12 14 17 17 13 10 8 6 11 12 11 10 9 9 9 9 8 10 11 14 15 16 17 18 20 19 18 20
14 12 11 11 12 12 12 14 13 5 9 10 13 13 11 11 11 12 9 7 6 5 8 10 8 9 8 7 8 9 9 7 8 11 13 14 14 15 16 18 19 20 20
10 11 14 12 11 10 11 12 6 8 10 8 8 10 9 11 10 9 8 6 5 4 6 6 7 7 7 8 8 8 8 8 9 11 12 11 12 13 15 17 18 18 20
12 15 13 11 9 11 11 11 9 8 10 11 11 11 14 12 10 9 7 5 4 4 4 6 6 7 6 6 6 7 7 9 8 9 10 10 10 12 14 15 17 17 17
10 9 5 7 10 10 9 9 9 10 10 12 14 14 15 12 10 9 6 5 4 3 3 5 5 5 5 5 5 6 8 7 6 7 7 9 10 11 13 15 16 17 17
9 9 9 10 9 9 8 7 7 7 8 10 10 9 14 12 8 8 8 7 5 4 4 5 5 5 5 5 5 6 6 5 5 6 7 8 10 11 12 14 15 16 16
8 11 10 8 8 7 6 5 6 7 8 8 8 10 14 11 9 8 7 7 6 5 5 5 5 5 4 5 5 5 4 4 4 5 7 8 10 10 12 13 14 15 16
8 8 7 6 5 5 7 7 7 8 8 8 8 11 13 13 11 10 9 8 7 6 5 5 5 5 5 4 4 5 4 2 3 5 7 8 10 10 11 12 13 14 15
7 6 6 6 5 7 6 7 8 5 6 9 8 9 10 12 11 9 9 9 8 7 6 6 6 5 5 5 5 5 4 3 3 5 7 8 9 10 10 10 11 12 13
7 5 5 4 5 6 5 9 10 8 8 10 11 9 8 8 9 12 12 9 9 8 7 7 7 6 6 7 6 5 8 7 4 5 7 8 8 9 8 9 11 9 11
4 4 3 4 4 5 7 7 8 8 9 10 11 10 12 15 15 12 10 10 10 10 8 8 7 7 7 7 7 8 7 5 5 5 5 7 7 8 8 8 9 9 9
Wind_Direction
208 210 210 210 210 210 213 212 208 203 206 203 201 207 191 203 213 216 229 235 233 240 246 252 258 264 269 275 273 278 277 279 276 293 299 301 302 286 288 290 293 293 289
209 207 209 209 209 212 213 212 204 208 189 203 202 209 209 210 219 223 228 232 235 240 244 247 252 256 253 267 273 272 287 287 283 283 292 295 294 295 287 287 289 291 287
210 209 211 211 211 213 215 209 204 198 197 188 193 193 212 219 227 232 236 238 237 242 244 245 253 263 266 272 281 283 284 283 278 272 279 285 293 291 287 282 285 285 280
210 212 212 213 213 216 215 205 200 202 196 196 185 179 234 229 236 235 237 236 235 235 244 250 255 258 265 268 265 270 276 278 284 274 268 281 290 295 287 279 298 297 296
213 217 217 217 218 220 216 206 195 191 195 192 179 178 231 248 242 240 240 238 235 238 247 254 258 253 252 247 259 272 281 282 283 290 290 300 294 298 307 302 296 298 298
218 219 221 213 212 217 214 205 195 194 194 192 200 206 230 232 238 227 232 238 240 244 254 261 264 270 266 262 259 260 261 263 276 285 290 293 291 288 299 301 303 298 297
207 212 213 213 212 210 210 208 201 200 193 197 201 214 221 231 230 230 236 235 247 250 253 259 265 271 255 260 265 271 278 278 275 273 275 284 292 296 302 298 293 294 289
198 205 204 205 210 203 200 205 210 206 199 200 204 211 222 231 233 227 232 232 239 246 244 241 243 259 264 251 257 266 270 276 269 266 276 284 286 291 292 291 288 286 282
193 197 198 199 202 201 199 200 204 200 199 197 208 220 224 230 232 233 236 233 238 244 247 251 257 251 248 251 258 269 279 280 284 275 284 290 297 304 299 292 289 291 291
187 190 192 196 201 203 204 202 200 194 193 192 208 223 218 216 232 259 235 238 249 250 262 255 261 233 242 260 262 269 274 279 287 287 289 294 297 294 290 270 268 269 280
176 179 183 191 197 199 196 196 191 191 197 203 212 210 209 206 219 230 229 242 249 262 269 252 237 237 246 255 254 254 264 269 284 287 294 300 301 295 296 297 294 292 294
171 174 175 175 177 179 179 180 187 193 198 198 205 205 209 208 215 223 230 238 235 249 255 251 222 234 238 241 249 250 254 271 283 292 297 298 301 302 304 303 298 293 293
158 159 154 156 156 153 164 176 182 189 200 196 202 209 207 214 220 232 236 241 233 226 231 234 218 242 252 260 253 247 256 274 290 294 295 299 302 303 303 299 301 301 295
137 134 143 143 145 151 167 180 188 198 205 205 208 204 204 191 205 214 221 213 209 194 216 225 225 237 243 264 227 242 262 283 294 296 294 300 301 303 307 310 311 311 311
146 143 140 138 143 146 141 168 186 195 221 208 192 194 204 208 207 219 207 196 197 200 189 225 238 244 252 246 252 267 273 280 284 294 300 301 305 309 312 316 314 315 320
135 141 137 134 137 143 153 144 155 174 191 194 199 209 224 234 215 203 197 192 191 202 227 255 259 261 271 275 264 272 277 271 283 299 298 302 309 314 319 318 317 318 324
123 129 129 137 146 148 167 177 181 175 189 200 204 204 197 193 178 168 173 182 194 209 244 258 266 271 268 265 271 278 281 291 296 291 299 304 312 316 321 324 325 322 326
133 144 149 148 154 166 187 194 211 190 181 161 166 167 171 157 151 158 164 158 169 219 257 270 264 260 264 269 272 274 284 291 295 298 300 308 315 324 326 330 330 333 332
151 156 150 156 173 175 180 199 209 195 179 151 142 142 150 153 160 168 174 239 255 260 256 267 272 273 260 256 263 276 288 292 300 298 300 313 323 329 330 333 331 335 329
142 145 187 166 160 167 171 186 189 193 185 177 182 174 172 171 183 190 194 201 219 250 246 263 255 252 248 252 263 277 281 281 287 292 309 317 328 330 334 333 338 339 344
171 164 160 154 155 148 156 173 181 189 195 192 198 178 183 202 206 199 190 197 211 223 234 245 235 236 233 243 265 273 270 280 291 303 312 322 328 331 335 335 339 343 349
168 161 162 166 148 160 161 177 191 206 218 210 210 154 198 208 217 203 200 202 205 213 212 217 231 237 251 262 256 253 255 273 294 315 319 324 329 336 337 338 342 348 349
161 174 159 168 182 139 183 211 217 225 225 225 221 167 194 212 213 206 202 208 203 204 203 213 222 234 243 244 231 230 251 267 300 317 321 326 330 348 335 340 345 354 354
179 181 183 183 199 219 221 227 231 244 252 229 219 222 210 213 209 206 209 208 206 204 204 211 224 232 228 228 220 223 233 248 293 313 319 324 328 340 340 341 348 356 356
154 163 194 207 207 233 219 248 227 233 214 236 232 232 228 214 214 214 215 213 213 212 212 213 219 222 222 218 220 220 247 257 268 294 319 315 327 324 340 344 350 354 5
152 165 187 208 225 236 243 246 253 244 236 232 229 221 215 215 223 223 215 222 224 222 224 220 222 220 215 213 206 213 245 267 269 277 304 305 324 338 342 348 351 358 13